De Queen, AR

9:42 PM CDT on September 20, 2017 (GMT -0500)
Helms Sevier County

Weather History for KDEQ - August, 2013

Change the Weather History Date:

Friday, August 16, 2013

  Actual Average Record
Temperature  
Mean Temperature 69 °F 82 °F  
Max Temperature 79 °F 94 °F 108 °F (1943)
Min Temperature 59 °F 69 °F 54 °F (1992)
Degree Days  
Heating Degree Days 0 0  
Month to date heating degree days 0 0  
Since 1 June heating degree days 0 0  
Since 1 July heating degree days 0 0  
Cooling Degree Days 4 17  
Month to date cooling degree days 266 268  
Year to date cooling degree days 1334 1360  
Since 1 June cooling degree days 1102 1143  
Growing Degree Days 18 (Base 50)    
Moisture  
Dew Point 60 °F    
Average Humidity 76    
Maximum Humidity 97    
Minimum Humidity 54    
Precipitation  
Precipitation T in 0.06 in 1.80 in (2001)
Month to date precipitation 0.25 1.10  
Year to date precipitation 20.18 30.52  
Snow  
Snow 0.00 in - - ()
Month to date snowfall 0.0  
Since 1 June snowfall 0.0  
Since 1 July snowfall 0.0  
Snow Depth 0.00 in    
Sea Level Pressure  
Sea Level Pressure 30.03 in    
Wind  
Wind Speed 4 mph (East)    
Max Wind Speed 12 mph    
Max Gust Speed 16 mph    
Visibility 9 miles    
Events Rain    
T = Trace of Precipitation, MM = Missing Value Source: NWS Daily Summary

Daily Weather History Graph

Daily Weather History Graph

Search for Another Location

Airport or City:

Trip Planner

Search our weather history database for the weather conditions in past years. The results will help you decide how hot, cold, wet, or windy it might be!

Date:

Astronomy

Aug. 16, 2013 Rise Set
Actual Time 6:40 AM CDT 8:03 PM CDT
Civil Twilight 6:13 AM CDT 8:29 PM CDT
Nautical Twilight 5:42 AM CDT 9:00 PM CDT
Astronomical Twilight 5:09 AM CDT 9:33 PM CDT
Moon 4:17 PM CDT (8/16) 1:48 AM CDT (8/16)
Length of Visible Light 14h 15m
Length of Day
13h 23m
Waxing Gibbous, 75% of the Moon is Illuminated
Aug 16
Waxing Gibbous
Aug 20
Full
Aug 28
Last Quarter
Sep 5
New
Sep 12
First Quarter

Hourly Weather History & Observations

Time (CDT) Temp. Dew Point Humidity Pressure Visibility Wind Dir Wind Speed Gust Speed Precip Events Conditions
12:53 AM 62.1 °F 61.0 °F 96% 30.01 in 9.0 mi Calm Calm - N/A   Clear
1:53 AM 62.1 °F 61.0 °F 96% 30.00 in 10.0 mi Calm Calm - N/A   Clear
2:53 AM 61.0 °F 59.0 °F 93% 30.01 in 9.0 mi Calm Calm - N/A   Clear
3:53 AM 60.1 °F 59.0 °F 96% 30.02 in 9.0 mi Calm Calm - N/A   Clear
4:53 AM 61.0 °F 59.0 °F 93% 30.01 in 9.0 mi Calm Calm - N/A   Mostly Cloudy
5:53 AM 59.0 °F 57.9 °F 96% 30.00 in 8.0 mi East 4.6 mph - N/A   Clear
6:53 AM 62.1 °F 60.1 °F 93% 30.03 in 9.0 mi East 3.5 mph - N/A   Clear
7:53 AM 63.0 °F 60.1 °F 90% 30.03 in 9.0 mi NE 3.5 mph - 0.00 in   Overcast
8:53 AM 64.0 °F 62.1 °F 93% 30.04 in 8.0 mi East 4.6 mph - 0.00 in Rain Light Rain
9:53 AM 66.9 °F 61.0 °F 81% 30.05 in 10.0 mi ENE 5.8 mph - 0.00 in   Overcast
10:53 AM 71.1 °F 61.0 °F 70% 30.07 in 10.0 mi ENE 4.6 mph - N/A   Mostly Cloudy
11:53 AM 72.0 °F 60.1 °F 66% 30.07 in 10.0 mi East 8.1 mph - N/A   Overcast
12:53 PM 72.0 °F 60.1 °F 66% 30.07 in 10.0 mi ESE 4.6 mph - N/A   Overcast
1:53 PM 73.0 °F 60.1 °F 64% 30.05 in 10.0 mi East 4.6 mph - N/A   Overcast
2:53 PM 75.0 °F 61.0 °F 62% 30.04 in 10.0 mi ENE 8.1 mph - N/A   Overcast
3:53 PM 78.1 °F 61.0 °F 56% 30.02 in 10.0 mi East 6.9 mph - N/A   Mostly Cloudy
4:53 PM 78.1 °F 62.1 °F 58% 30.01 in 10.0 mi ESE 9.2 mph - N/A   Clear
5:53 PM 78.1 °F 61.0 °F 56% 30.01 in 10.0 mi East 5.8 mph - N/A   Partly Cloudy
6:53 PM 77.0 °F 61.0 °F 58% 30.01 in 10.0 mi NE 6.9 mph - N/A   Clear
7:53 PM 72.0 °F 59.0 °F 64% 30.02 in 10.0 mi ENE 5.8 mph - N/A   Clear
8:53 PM 68.0 °F 57.9 °F 70% 30.04 in 10.0 mi East 3.5 mph - N/A   Clear
9:53 PM 64.0 °F 59.0 °F 84% 30.06 in 10.0 mi Calm Calm - N/A   Clear
10:53 PM 62.1 °F 59.0 °F 90% 30.07 in 9.0 mi Calm Calm - N/A   Clear
11:53 PM 60.1 °F 59.0 °F 96% 30.08 in 5.0 mi Calm Calm - N/A   Clear